EW8552 Weather Reports


time (UTC)temp
C
wind
direction
speed
KPH
gust
KPH
rain 1hr
cm
rain 24hr
cm
rain mn
cm
humidity
%
barometer
mb
20260504213016 25 90 1.6 8.0 0.00 0.00 0.00 32 1009.6
20260504210016 25 203 1.6 6.4 0.00 0.00 0.00 32 1009.6
20260504203016 25 113 1.6 6.4 0.00 0.00 0.00 31 1009.8
20260504200017 25 225 1.6 8.0 0.00 0.00 0.00 32 1010.3
20260504193037 24 90 1.6 4.8 0.00 0.00 0.00 33 1010.6
20260504190037 23 90 1.6 6.4 0.00 0.00 0.00 34 1011.2
20260504183036 23 248 1.6 8.0 0.00 0.00 0.00 33 1011.9
20260504180016 22 225 1.6 8.0 0.00 0.00 0.00 36 1012.1
20260504173016 22 225 1.6 8.0 0.00 0.00 0.00 34 1012.4
20260504043017 10 0.0 0.0 0.00 0.00 0.00 56 1015.6
20260504040017 10 0.0 0.0 0.00 0.00 0.00 53 1015.6
20260504033017 10 0.0 0.0 0.00 0.00 0.00 52 1015.4
20260504030017 10 0.0 0.0 0.00 0.00 0.00 55 1015.1
20260504023037 10 0.0 0.0 0.00 0.00 0.00 52 1015.0
20260504020016 10 0.0 0.0 0.00 0.00 0.00 53 1015.0
20260504013016 11 0.0 0.0 0.00 0.00 0.00 49 1014.8
20260504010016 12 0.0 0.0 0.00 0.00 0.00 47 1014.6
20260504003017 12 0.0 0.0 0.00 0.00 0.00 43 1014.5
20260504000057 13 0.0 0.0 0.00 0.00 0.00 39 1014.1
20260503233017 15 0.0 0.0 0.00 0.00 0.00 35 1014.0
20260503230017 15 0.0 0.0 0.00 0.00 0.00 34 1013.8
20260503223037 16 0.0 3.2 0.00 0.00 0.00 31 1013.9
20260503220017 17 0.0 4.8 0.00 0.00 0.00 30 1014.0